User: anonymous   Login
Location: Unspecified
(0.0000°N, 0.0000°E)
Time: 08:54:11
(UTC+00:00)
Language:

PUNCH-WFI-3 - Orbit

View from above orbital plane
View from above orbital plane
View from above satellite
View from above satellite

Ground track
Ground track

The orbit is defined by the following mean orbital elements,

1 63180U          26145.47813066 +.00000000 +00000-0 +77389-4 0 00002
2 63180  97.9545 330.9385 0008836 237.3669 122.6688 14.74320885    06
Epoch (UTC): 25 May 2026 11:28:30
Eccentricity: 0.0008836
inclination: 97.9545°
perigee height: 641 km
apogee height: 654 km
right ascension of ascending node: 330.9385°
argument of perigee: 237.3669°
revolutions per day: 14.74320885
mean anomaly at epoch: 122.6688°

The dashed part of the orbit path shows where the satellite is in the earth's shadow,  

DLR